[[{"header":{"parameterUnit":"m.s-1","parameterCategory":1,"la1":30.2991,"la2":30.254,"lo1":-89.0895,"lo2":-89.0444,"dy":0.0017,"dx":0.0017,"nx":28,"ny":28,"refTime":"2023-08-30T03:00:00:Z","depth":0,"parameterNumber":2,"parameterNumberName":"U-component_of_WINDS"},"data":[0,0,0,0,0,0,0,0,0,0,0,0,0,0,0,0,0,0,0,0,0,0,0,0,0,0,0,0,0,0,0,0,0,0,0,0,0,0,0,0,0,0,0,0,0,0,0,0,0,0,0,0,0,0,0,0,0,0,-1.8416,-1.8416,0,-1.8469,-1.8469,-1.847,-1.8408,-1.8406,-1.8403,-1.8401,-1.8455,-1.8459,-1.8462,0,0,0,0,0,0,0,0,0,0,0,0,0,-1.826,-1.8263,-1.8416,-1.8416,-1.8417,-1.8469,-1.8469,-1.847,-1.8408,-1.8406,-1.8403,-1.84,-1.8454,-1.8458,-1.8463,0,0,0,0,0,0,0,0,0,0,0,0,0,-1.8322,-1.8264,-1.8415,-1.8392,-1.8391,-1.8468,-1.8469,-1.847,-1.8409,-1.8406,-1.8402,-1.8399,-1.8453,-1.8458,-1.8463,-1.8566,0,0,-1.848,-1.8482,0,0,0,0,0,0,0,0,-1.8318,-1.8327,-1.8395,-1.8394,-1.8393,-1.8428,-1.8434,-1.8502,-1.841,-1.8402,-1.8401,-1.8397,-1.8449,-1.8455,-1.8472,-1.8569,-1.8571,-1.848,-1.8484,-1.8486,-1.8488,0,0,0,0,0,0,0,-1.8314,-1.8325,-1.8437,-1.8396,-1.8395,-1.8379,-1.8384,-1.8447,-1.8444,-1.8403,-1.8398,-1.8405,-1.8448,-1.8467,-1.8473,-1.8572,-1.848,-1.8485,-1.8488,-1.849,-1.8755,-1.8758,0,0,0,0,0,0,-1.8312,-1.8322,-1.8435,-1.8438,-1.8346,-1.8385,-1.839,-1.842,-1.8444,-1.8444,-1.8408,-1.8402,-1.846,-1.8467,-1.8475,-1.8597,-1.8486,-1.8491,-1.8494,-1.8751,-1.8755,-1.876,0,0,0,0,0,0,-1.8309,-1.8323,-1.8433,-1.8379,-1.8391,-1.8391,-1.8425,-1.8423,-1.8442,-1.8448,-1.8447,-1.8429,-1.8457,-1.8467,-1.8544,-1.8598,-1.8493,-1.8498,-1.8746,-1.8752,-1.8757,-1.8841,0,0,0,0,0,0,-1.8305,-1.8322,-1.8362,-1.838,-1.8395,-1.8502,-1.8429,-1.8427,-1.8452,-1.8445,-1.8467,-1.8467,-1.8455,-1.8536,-1.8549,-1.8603,-1.8503,-1.8742,-1.8749,-1.8756,-1.8834,-1.8849,-1.8862,0,0,0,0,0,-1.83,-1.8384,-1.8364,-1.8378,-1.8444,-1.8505,-1.8513,-1.8498,-1.8457,-1.8496,-1.8499,-1.8466,-1.8589,-1.8544,-1.8559,-1.8615,-1.8738,-1.8747,-1.8755,-1.8828,-1.8846,-1.8862,0,0,0,0,0,0,-1.8372,-1.8386,-1.8364,-1.8457,-1.848,-1.8494,-1.8544,-1.8518,-1.8554,-1.8546,-1.8525,-1.853,-1.8612,-1.8621,-1.8571,-1.8715,-1.8657,-1.8669,-1.8707,-1.8725,-1.8739,-1.8736,-1.8507,0,0,0,0,0,-1.8399,-1.8447,-1.8456,-1.8537,-1.8549,-1.8545,-1.8571,-1.8557,-1.858,-1.859,-1.8599,-1.8623,-1.8666,-1.8696,-1.8736,-1.8834,-1.8838,-1.888,-1.8894,-1.8906,-1.8917,-1.8969,-1.8987,-1.8787,-1.8787,-1.8787,0,0,-1.8454,-1.8468,-1.85,-1.8551,-1.8568,-1.8619,-1.8554,-1.861,-1.8647,-1.8598,-1.8672,-1.8679,-1.8704,-1.8791,-1.883,-1.8801,-1.8972,-1.8917,-1.8926,-1.893,-1.8979,-1.8998,-1.9015,-1.8793,-1.8792,-1.8791,0,0,-1.8582,-1.8597,-1.8665,-1.8683,-1.8709,-1.8705,-1.8721,-1.8739,-1.8742,-1.8815,-1.8779,-1.8823,-1.8899,-1.8918,-1.8938,-1.9071,-1.9042,-1.9085,-1.916,-1.9211,-1.9226,-1.924,-1.9288,-1.9305,-1.9095,-1.9095,-1.9095,0,-1.8648,-1.8723,-1.8704,-1.8763,-1.8786,-1.8744,-1.8813,-1.8831,-1.8869,-1.8886,-1.8852,-1.8946,-1.896,-1.9052,-1.9084,-1.9101,-1.9119,-1.9083,-1.9226,-1.9239,-1.9252,-1.9297,-1.9315,-1.91,-1.91,-1.9099,-1.9099,0,-1.8803,-1.8855,-1.8907,-1.8945,-1.8974,-1.9038,-1.9028,-1.906,-1.9043,-1.9042,-1.9116,-1.9131,-1.9174,-1.9194,-1.9178,-1.9284,-1.9265,-1.9229,-1.917,-1.9277,-1.9319,-1.9336,-1.9108,-1.9106,-1.9104,-1.9103,0,0,-1.8979,-1.9004,-1.9024,-1.904,-1.9064,-1.9104,-1.9165,-1.9207,-1.9235,-1.9262,-1.9313,-1.9377,-1.9344,-1.9366,-1.9352,-1.9396,-1.9501,-1.9355,-1.9355,-1.9382,-1.9618,-1.9645,-1.9666,-1.9481,-1.9484,-1.9487,-1.9616,0,-1.9107,-1.9214,-1.9198,-1.93,-1.9348,-1.9308,-1.9361,-1.9381,-1.9382,-1.9422,-1.9423,-1.9469,-1.9422,-1.9435,-1.9477,-1.9479,-1.9548,-1.947,-1.9528,-1.9531,-1.9525,-1.9687,-1.9717,-1.9838,-1.9632,-1.9635,-1.9637,0,-1.9271,-1.9304,-1.9412,-1.9428,-1.9447,-1.9496,-1.9532,-1.9571,-1.9593,-1.959,-1.9615,-1.9592,-1.9653,-1.9591,-1.9674,-1.9622,-1.9644,-1.9649,-1.9653,-1.9659,-1.9591,-1.9698,-1.9876,-1.9894,-1.9662,-1.966,-1.9659,0,-1.939,-1.9461,-1.9534,-1.9549,-1.957,-1.9605,-1.9615,-1.9633,-1.9659,-1.9691,-1.9707,-1.9745,-1.9766,-1.9796,-1.9784,-1.974,-1.9869,-1.9807,-1.9868,-1.9869,-1.9899,-1.9897,-2.0083,-1.9912,-1.9912,-1.9911,-1.9911,0,-1.9535,-1.9603,-1.9587,-1.9633,-1.9707,-1.9687,-1.9761,-1.9766,-1.9783,-1.9828,-1.9794,-1.9837,-1.9818,-1.986,-1.985,-1.992,-1.993,-1.9929,-1.9926,-1.9933,-1.9933,-1.9948,-1.994,-1.9916,-1.9915,-1.9914,-1.9913,0,-1.9681,-1.9673,-1.9751,-1.9764,-1.9768,-1.9822,-1.9833,-1.9875,-1.9872,-1.993,-1.9942,-1.9938,-1.9985,-1.9975,-2.0027,-2.0021,-2.0109,-2.0095,-2.0102,-2.0099,-2.0161,-2.0155,-2.0364,-2.039,-2.0201,-2.0203,-2.0205,0,-1.9775,-1.9826,-1.9844,-1.9872,-1.9885,-1.993,-1.9956,-1.9938,-1.9966,-1.9994,-2.0033,-2.0077,-2.0111,-2.0188,-2.0189,-2.0228,-2.0215,-2.0286,-2.0221,-2.0226,-2.0217,-2.0215,-2.022,-2.0299,-2.0301,-2.0303,-2.0304,0,-1.9943,-1.9936,-1.9975,-2.0012,-2.0044,-2.0073,-2.0098,-2.0123,-2.0106,-2.014,-2.0187,-2.0214,-2.0266,-2.031,-2.0346,-2.0356,-2.0328,-2.0324,-2.0341,-2.0349,-2.0351,-2.0351,-2.0138,-2.032,-2.0319,-2.0317,-2.0317,-2.0316,-2.0066,-2.0109,-2.0128,-2.0172,-2.0189,-2.0213,-2.0254,-2.0256,-2.0295,-2.0336,-2.0323,-2.0377,-2.0396,-2.0442,-2.0455,-2.0497,-2.0471,-2.0495,-2.0501,-2.0507,-2.0515,-2.0343,-2.0503,-2.0503,-2.0503,-2.0502,-2.0502,0,-2.0232,-2.0242,-2.0283,-2.0319,-2.0354,-2.0323,-2.035,-2.038,-2.0429,-2.0449,-2.0483,-2.0537,-2.058,-2.0584,-2.0623,-2.0656,-2.0644,-2.0667,-2.0665,-2.0667,-2.0536,-2.0518,-2.0676,-2.0676,-2.0676,-2.0676,-2.0676,-2.0676,-2.0323,-2.0394,-2.039,-2.0469,-2.0478,-2.0531,-2.0549,-2.0571,-2.0587,-2.0649,-2.0684,-2.0686,-2.07,-2.074,-2.0777,-2.0777,-2.0793,-2.0821,-2.0816,-2.0694,-2.0677,-2.066,-2.0643,-2.0825,-2.0825,-2.0944,-2.0945,-2.0946]},{"header":{"parameterUnit":"m.s-1","parameterCategory":1,"la1":30.2991,"la2":30.254,"lo1":-89.0895,"lo2":-89.0444,"dy":0.0017,"dx":0.0017,"nx":28,"ny":28,"refTime":"2023-08-30T03:00:00:Z","depth":0,"parameterNumber":3,"parameterNumberName":"V-component_of_WINDS"},"data":[0,0,0,0,0,0,0,0,0,0,0,0,0,0,0,0,0,0,0,0,0,0,0,0,0,0,0,0,0,0,0,0,0,0,0,0,0,0,0,0,0,0,0,0,0,0,0,0,0,0,0,0,0,0,0,0,0,0,-3.9406,-3.9407,0,-3.9457,-3.9457,-3.9458,-3.9409,-3.9407,-3.9405,-3.9403,-3.9452,-3.9455,-3.9458,0,0,0,0,0,0,0,0,0,0,0,0,0,-3.9263,-3.9266,-3.9406,-3.9407,-3.9407,-3.9457,-3.9457,-3.9458,-3.9409,-3.9407,-3.9405,-3.9402,-3.9451,-3.9454,-3.9458,0,0,0,0,0,0,0,0,0,0,0,0,0,-3.932,-3.9267,-3.9406,-3.9389,-3.9388,-3.9456,-3.9457,-3.9458,-3.941,-3.9407,-3.9404,-3.9401,-3.945,-3.9454,-3.9459,-3.9545,0,0,-3.9473,-3.9475,0,0,0,0,0,0,0,0,-3.9317,-3.9326,-3.9391,-3.939,-3.9389,-3.9424,-3.9425,-3.9487,-3.9411,-3.9402,-3.9403,-3.94,-3.9445,-3.9449,-3.9465,-3.9547,-3.955,-3.9473,-3.9476,-3.9478,-3.9479,0,0,0,0,0,0,0,-3.9313,-3.9323,-3.9426,-3.9392,-3.9391,-3.9378,-3.9383,-3.9436,-3.9438,-3.9402,-3.9399,-3.9406,-3.9444,-3.9461,-3.9466,-3.955,-3.9473,-3.9477,-3.948,-3.9482,-3.9704,-3.9707,0,0,0,0,0,0,-3.9312,-3.932,-3.9424,-3.9427,-3.9346,-3.9383,-3.9388,-3.9415,-3.9438,-3.9439,-3.9408,-3.9403,-3.9454,-3.9461,-3.9467,-3.9569,-3.9478,-3.9482,-3.9485,-3.9701,-3.9705,-3.9708,0,0,0,0,0,0,-3.9309,-3.9321,-3.9422,-3.9373,-3.9385,-3.9388,-3.9419,-3.9418,-3.9435,-3.9442,-3.9442,-3.9425,-3.9452,-3.9461,-3.9526,-3.957,-3.9484,-3.9489,-3.9697,-3.9702,-3.9706,-3.9773,0,0,0,0,0,0,-3.9305,-3.9321,-3.9355,-3.9374,-3.9388,-3.9481,-3.9422,-3.9421,-3.9444,-3.9438,-3.9459,-3.9459,-3.9451,-3.9519,-3.9531,-3.9575,-3.9492,-3.9693,-3.9699,-3.9705,-3.9767,-3.978,-3.979,0,0,0,0,0,-3.93,-3.9371,-3.9357,-3.9369,-3.943,-3.9484,-3.9492,-3.9481,-3.9448,-3.9481,-3.9485,-3.9459,-3.9564,-3.9527,-3.9539,-3.9585,-3.969,-3.9698,-3.9704,-3.9762,-3.9777,-3.979,0,0,0,0,0,0,-3.9355,-3.9373,-3.9357,-3.9437,-3.946,-3.9476,-3.9517,-3.9498,-3.953,-3.9523,-3.9507,-3.9512,-3.9581,-3.9589,-3.9548,-3.9669,-3.9621,-3.9631,-3.9661,-3.9675,-3.9687,-3.9682,-3.9496,0,0,0,0,0,-3.9377,-3.9421,-3.9433,-3.9502,-3.9515,-3.9514,-3.9537,-3.9528,-3.955,-3.9558,-3.9568,-3.9589,-3.9626,-3.9651,-3.9687,-3.9768,-3.9771,-3.9806,-3.9818,-3.9827,-3.9835,-3.9877,-3.9892,-3.9731,-3.9731,-3.9731,0,0,-3.9422,-3.9437,-3.9465,-3.9514,-3.953,-3.9574,-3.9523,-3.9571,-3.9603,-3.9565,-3.9627,-3.9635,-3.9658,-3.9731,-3.9764,-3.974,-3.9881,-3.9836,-3.9844,-3.9847,-3.9886,-3.9901,-3.9915,-3.9736,-3.9735,-3.9734,0,0,-3.9526,-3.9543,-3.9601,-3.9619,-3.9644,-3.9643,-3.9658,-3.9677,-3.9681,-3.9743,-3.9715,-3.9752,-3.9818,-3.9834,-3.9852,-3.9962,-3.9937,-3.9973,-4.0033,-4.0075,-4.0087,-4.0098,-4.0136,-4.015,-3.9982,-3.9982,-3.9982,0,-3.9578,-3.9644,-3.9634,-3.9685,-3.9706,-3.9675,-3.9733,-3.975,-3.9785,-3.98,-3.9773,-3.9854,-3.9868,-3.9944,-3.997,-3.9986,-4.0,-3.997,-4.0087,-4.0098,-4.0108,-4.0143,-4.0158,-3.9986,-3.9986,-3.9985,-3.9985,0,-3.9706,-3.9753,-3.9797,-3.9833,-3.9859,-3.9913,-3.9909,-3.9937,-3.9925,-3.9927,-3.9989,-4.0004,-4.0041,-4.0059,-4.0047,-4.0133,-4.0117,-4.0089,-4.0041,-4.0128,-4.016,-4.0174,-3.9992,-3.999,-3.9989,-3.9988,0,0,-3.9846,-3.9875,-3.9892,-3.9907,-3.9932,-3.9967,-4.0019,-4.0056,-4.008,-4.0105,-4.0147,-4.0203,-4.0177,-4.0197,-4.0187,-4.0223,-4.0307,-4.019,-4.019,-4.021,-4.04,-4.042,-4.0436,-4.0292,-4.0294,-4.0296,-4.0398,0,-3.995,-4.0042,-4.0033,-4.012,-4.0161,-4.0132,-4.0177,-4.0197,-4.02,-4.0234,-4.0237,-4.0276,-4.024,-4.0251,-4.0286,-4.0289,-4.0345,-4.0282,-4.0329,-4.0331,-4.0323,-4.0454,-4.0475,-4.057,-4.0411,-4.0413,-4.0415,0,-4.0083,-4.0113,-4.0204,-4.0223,-4.024,-4.0281,-4.0313,-4.0347,-4.0368,-4.0368,-4.039,-4.0373,-4.0424,-4.0376,-4.0444,-4.0402,-4.042,-4.0425,-4.0428,-4.0431,-4.0377,-4.0458,-4.06,-4.0614,-4.0435,-4.0434,-4.0432,0,-4.0173,-4.0238,-4.03,-4.0314,-4.0337,-4.0366,-4.0377,-4.0396,-4.0418,-4.0446,-4.046,-4.0494,-4.0512,-4.0538,-4.053,-4.0496,-4.06,-4.0551,-4.0599,-4.0599,-4.0621,-4.0619,-4.0766,-4.0636,-4.0636,-4.0635,-4.0635,0,-4.0289,-4.0345,-4.0341,-4.0379,-4.044,-4.043,-4.0491,-4.0498,-4.0514,-4.0552,-4.0529,-4.0564,-4.0553,-4.0587,-4.0582,-4.0638,-4.0647,-4.0647,-4.0644,-4.0648,-4.0648,-4.0659,-4.0651,-4.0639,-4.0638,-4.0637,-4.0637,0,-4.04,-4.04,-4.0465,-4.0482,-4.0488,-4.0532,-4.0546,-4.0581,-4.0582,-4.063,-4.0641,-4.0642,-4.0681,-4.0677,-4.0721,-4.0717,-4.0786,-4.0777,-4.078,-4.0777,-4.0824,-4.0819,-4.0982,-4.1002,-4.086,-4.0862,-4.0863,0,-4.0473,-4.0516,-4.0538,-4.0562,-4.0575,-4.0614,-4.0637,-4.0628,-4.0652,-4.0679,-4.0711,-4.0748,-4.0778,-4.0842,-4.0846,-4.0879,-4.0868,-4.0923,-4.0873,-4.0875,-4.0867,-4.0864,-4.0867,-4.0933,-4.0934,-4.0936,-4.0937,0,-4.0602,-4.06,-4.0635,-4.0669,-4.0697,-4.0724,-4.0747,-4.0768,-4.0761,-4.0789,-4.083,-4.0853,-4.0898,-4.0935,-4.0966,-4.0975,-4.0954,-4.0953,-4.0965,-4.0968,-4.0967,-4.0967,-4.0805,-4.0949,-4.0947,-4.0946,-4.0946,-4.0945,-4.0695,-4.0731,-4.0752,-4.0791,-4.0808,-4.0831,-4.0864,-4.087,-4.0904,-4.094,-4.0933,-4.0978,-4.0996,-4.1036,-4.1049,-4.1083,-4.1063,-4.1081,-4.1086,-4.109,-4.1095,-4.0964,-4.1089,-4.1089,-4.1088,-4.1088,-4.1088,0,-4.0822,-4.0834,-4.087,-4.0904,-4.0934,-4.0914,-4.0939,-4.0965,-4.1005,-4.1025,-4.1055,-4.11,-4.1136,-4.1143,-4.1176,-4.1202,-4.1193,-4.1211,-4.1208,-4.121,-4.1112,-4.1097,-4.1218,-4.1218,-4.1217,-4.1217,-4.1217,-4.1217,-4.0891,-4.095,-4.095,-4.1017,-4.1028,-4.1073,-4.1089,-4.1109,-4.1125,-4.1177,-4.1207,-4.1212,-4.1226,-4.126,-4.1291,-4.1292,-4.1304,-4.1326,-4.1323,-4.123,-4.1217,-4.1205,-4.1191,-4.1329,-4.1329,-4.1418,-4.1419,-4.1419]}]]